Overview Statistics Trail Chart Weather Telemetry Raw packets
 

This is the latest recevied weather packets stored in our database for station/object K6POO-1. If no packets are shown the sender has not sent any weather packets the latest 10 day(s).

<< 28 29 30 31 32 33 34 >>
Time Temp. Humidity Pressure Rain* Wind** Luminosity Snow
1788493636 16.11° C 93% 1012.2 hPa 0 mm - 0 W/m² -
1788493332 16.11° C 93% 1012.3 hPa 0 mm - 0 W/m² -
1788493028 16.67° C 92% 1012.2 hPa 0 mm - 0 W/m² -
1788492725 16.11° C 92% 1012.2 hPa 0 mm - 0 W/m² -
1788492421 16.11° C 92% 1012.2 hPa 0 mm - 0 W/m² -
1788492120 16.11° C 92% 1012.3 hPa 0 mm - 0 W/m² -
1788491820 16.11° C 92% 1012.1 hPa 0 mm - 0 W/m² -
1788491515 16.11° C 92% 1012.1 hPa 0 mm - 0 W/m² -
1788491211 16.11° C 92% 1012.2 hPa 0 mm - 0 W/m² -
1788490906 16.11° C 92% 1011.8 hPa 0 mm - 0 W/m² -
1788490602 16.67° C 92% 1012 hPa 0 mm - 0 W/m² -
1788490296 16.67° C 92% 1012.1 hPa 0 mm - 0 W/m² -
1788489992 16.67° C 92% 1012.1 hPa 0 mm - 0 W/m² -
1788489688 16.67° C 91% 1012 hPa 0 mm - 1 W/m² -
1788489384 16.67° C 91% 1012.2 hPa 0 mm - 2 W/m² -
1788489079 16.67° C 91% 1012.2 hPa 0 mm - 3 W/m² -
1788488774 16.67° C 91% 1012.1 hPa 0 mm - 5 W/m² -
1788488470 17.22° C 91% 1012.1 hPa 0 mm - 8 W/m² -
1788488166 17.22° C 91% 1012.1 hPa 0.51 mm - 10 W/m² -
1788487860 17.22° C 90% 1012.2 hPa 0.51 mm - 13 W/m² -
1788487555 17.22° C 90% 1012.1 hPa 0 mm - 12 W/m² -
1788487245 17.22° C 90% 1012 hPa 0 mm - 12 W/m² -
1788486940 17.22° C 89% 1012.2 hPa 0 mm - 16 W/m² -
1788486638 17.78° C 88% 1012.1 hPa 0 mm - 20 W/m² -
1788486332 18.33° C 87% 1012.2 hPa 0 mm - 24 W/m² -

* Rain latest hour (hover to see other rain measurements)
** Current wind speed in m/s (hover to see current wind gust speed)